CFG3510 EDDF-LIRF

Flight info

Callsign CFG3510
Flight time 1h 21m
Altitude 37000
Route CINDY2D CINDY Z74 LAMPU DCT NOMBO Y161 RIDAR DCT KONIN DCT BERAS DCT LIKDA DCT BAKOR DCT VESAL DCT GAVRA DCT RITEB
Aircraft A320/M-SDE3FGHIJ1LORVWXYZ/LB1

Departure

Time 2026-04-15 06:45
Airport Frankfurt Main Airport (EDDF)

Arrival

Time 2026-04-15 08:07
Airport Rome–Fiumicino Leonardo da Vinci International Airport (LIRF)
Time Latitude Longitude Altitude Speed Heading
2026-04-15 06:21 50.04996 8.57601 356 ft 0 kts 21°
2026-04-15 06:35 50.04993 8.57599 356 ft 3 kts 21°
2026-04-15 06:35 50.04968 8.57584 356 ft 4 kts 22°
2026-04-15 06:35 50.04944 8.57567 356 ft 4 kts 38°
2026-04-15 06:35 50.04931 8.57542 356 ft 3 kts 108°
2026-04-15 06:36 50.04930 8.57543 356 ft 4 kts 115°
2026-04-15 06:36 50.04919 8.57581 356 ft 4 kts 115°
2026-04-15 06:36 50.04907 8.57620 356 ft 3 kts 115°
2026-04-15 06:36 50.04905 8.57626 356 ft 0 kts 115°
2026-04-15 06:39 50.04905 8.57627 356 ft 1 kts 115°
2026-04-15 06:39 50.04884 8.57703 357 ft 10 kts 113°
2026-04-15 06:39 50.04861 8.57787 358 ft 8 kts 112°
2026-04-15 06:39 50.04813 8.57895 358 ft 14 kts 148°
2026-04-15 06:40 50.04726 8.57950 358 ft 14 kts 159°
2026-04-15 06:40 50.04639 8.58000 358 ft 13 kts 160°
2026-04-15 06:40 50.04567 8.58029 362 ft 8 kts 192°
2026-04-15 06:40 50.04526 8.57950 364 ft 17 kts 246°
2026-04-15 06:41 50.04475 8.57741 364 ft 22 kts 249°
2026-04-15 06:41 50.04420 8.57509 361 ft 24 kts 249°
2026-04-15 06:41 50.04361 8.57260 361 ft 25 kts 250°
2026-04-15 06:41 50.04298 8.56995 359 ft 27 kts 249°
2026-04-15 06:42 50.04232 8.56719 358 ft 28 kts 249°
2026-04-15 06:42 50.04162 8.56426 354 ft 28 kts 250°
2026-04-15 06:42 50.04095 8.56146 352 ft 26 kts 249°
2026-04-15 06:42 50.04029 8.55872 350 ft 28 kts 250°
2026-04-15 06:43 50.03961 8.55587 349 ft 29 kts 249°
2026-04-15 06:43 50.03893 8.55303 349 ft 26 kts 249°
2026-04-15 06:43 50.03828 8.55033 348 ft 27 kts 250°
2026-04-15 06:43 50.03766 8.54775 347 ft 19 kts 249°
2026-04-15 06:44 50.03657 8.54729 344 ft 20 kts 156°
2026-04-15 06:44 50.03583 8.54799 344 ft 9 kts 96°
2026-04-15 06:44 50.03590 8.54835 344 ft 2 kts 71°
2026-04-15 06:44 50.03663 8.55148 343 ft 69 kts 70°
2026-04-15 06:45 50.03907 8.56171 352 ft 130 kts 69°
2026-04-15 06:45 50.04277 8.57732 439 ft 170 kts 70°
2026-04-15 06:45 50.04661 8.59470 1019 ft 172 kts 72°
2026-04-15 06:45 50.05031 8.61304 1524 ft 185 kts 73°
2026-04-15 06:46 50.05428 8.63286 1924 ft 198 kts 73°
2026-04-15 06:46 50.05851 8.65417 2312 ft 215 kts 73°
2026-04-15 06:46 50.06313 8.67766 2674 ft 236 kts 73°
2026-04-15 06:46 50.06814 8.70334 3046 ft 260 kts 73°
2026-04-15 06:47 50.07346 8.73143 3606 ft 276 kts 77°
2026-04-15 06:47 50.07298 8.76013 4802 ft 260 kts 111°
2026-04-15 06:47 50.06295 8.78174 5885 ft 250 kts 146°
2026-04-15 06:47 50.04686 8.79036 6697 ft 248 kts 182°
2026-04-15 06:48 50.03000 8.78380 7441 ft 249 kts 204°
2026-04-15 06:48 50.01405 8.77283 8173 ft 252 kts 204°
2026-04-15 06:48 49.99783 8.76164 8732 ft 264 kts 204°
2026-04-15 06:48 49.98035 8.74955 8999 ft 285 kts 204°
2026-04-15 06:49 49.96197 8.73681 9570 ft 293 kts 204°
2026-04-15 06:49 49.94289 8.72520 10224 ft 298 kts 198°
2026-04-15 06:49 49.92226 8.71629 10446 ft 319 kts 194°
2026-04-15 06:50 49.87597 8.70472 10922 ft 352 kts 174°
2026-04-15 06:50 49.85260 8.71621 11442 ft 357 kts 149°
2026-04-15 06:50 49.83416 8.74209 11976 ft 362 kts 124°
2026-04-15 06:50 49.82374 8.77768 12499 ft 367 kts 109°
2026-04-15 06:51 49.81590 8.81539 13018 ft 370 kts 107°
2026-04-15 06:51 49.80847 8.85363 13514 ft 373 kts 107°
2026-04-15 06:51 49.80125 8.89179 13981 ft 376 kts 107°
2026-04-15 06:51 49.79384 8.93074 14437 ft 379 kts 107°
2026-04-15 06:52 49.78628 8.96993 14878 ft 382 kts 107°
2026-04-15 06:52 49.77856 9.00938 15295 ft 384 kts 107°
2026-04-15 06:52 49.77069 9.04908 15696 ft 387 kts 107°
2026-04-15 06:52 49.76271 9.08902 16083 ft 390 kts 107°
2026-04-15 06:53 49.75520 9.12952 16459 ft 393 kts 105°
2026-04-15 06:53 49.74682 9.16978 16810 ft 395 kts 112°
2026-04-15 06:53 49.73415 9.20749 17149 ft 397 kts 124°
2026-04-15 06:53 49.71704 9.24103 17484 ft 399 kts 131°
2026-04-15 06:54 49.69877 9.27344 17809 ft 401 kts 131°
2026-04-15 06:54 49.68030 9.30583 18120 ft 403 kts 132°
2026-04-15 06:54 49.66167 9.33831 18420 ft 405 kts 132°
2026-04-15 06:54 49.64291 9.37100 18709 ft 408 kts 132°
2026-04-15 06:55 49.62352 9.40305 18985 ft 409 kts 137°
2026-04-15 06:55 49.60108 9.43006 19261 ft 411 kts 148°
2026-04-15 06:55 49.57654 9.45280 19531 ft 413 kts 149°
2026-04-15 06:55 49.55177 9.47541 19783 ft 415 kts 149°
2026-04-15 06:56 49.52692 9.49807 20031 ft 416 kts 149°
2026-04-15 06:56 49.50191 9.52086 20272 ft 418 kts 149°
2026-04-15 06:56 49.47683 9.54372 20503 ft 420 kts 149°
2026-04-15 06:56 49.45161 9.56669 20728 ft 422 kts 149°
2026-04-15 06:57 49.42634 9.58972 20948 ft 423 kts 149°
2026-04-15 06:57 49.40095 9.61283 21156 ft 425 kts 149°
2026-04-15 06:57 49.37546 9.63596 21353 ft 426 kts 150°
2026-04-15 06:57 49.35006 9.65955 21534 ft 428 kts 146°
2026-04-15 06:58 49.32687 9.68823 21708 ft 430 kts 136°
2026-04-15 06:58 49.30572 9.72068 21874 ft 431 kts 135°
2026-04-15 06:58 49.28449 9.75322 22035 ft 433 kts 135°
2026-04-15 06:58 49.26312 9.78580 22189 ft 434 kts 135°
2026-04-15 06:59 49.24170 9.81836 22336 ft 435 kts 135°
2026-04-15 06:59 49.22020 9.85105 22478 ft 436 kts 135°
2026-04-15 06:59 49.19866 9.88377 22617 ft 437 kts 135°
2026-04-15 06:59 49.17704 9.91656 22750 ft 438 kts 135°
2026-04-15 07:00 49.15538 9.94938 22876 ft 439 kts 135°
2026-04-15 07:00 49.13368 9.98223 23001 ft 440 kts 135°
2026-04-15 07:00 49.11188 10.01516 23127 ft 440 kts 135°
2026-04-15 07:00 49.09008 10.04801 23252 ft 441 kts 135°
2026-04-15 07:01 49.06822 10.08092 23377 ft 441 kts 136°
2026-04-15 07:01 49.04622 10.11361 23502 ft 442 kts 136°
2026-04-15 07:01 49.02389 10.14577 23627 ft 442 kts 137°
2026-04-15 07:01 49.00126 10.17763 23752 ft 442 kts 138°
2026-04-15 07:02 48.97851 10.20922 23877 ft 443 kts 138°
2026-04-15 07:02 48.95574 10.24075 24002 ft 443 kts 138°
2026-04-15 07:02 48.93300 10.27242 24126 ft 443 kts 137°
2026-04-15 07:02 48.91042 10.30416 24251 ft 443 kts 137°
2026-04-15 07:03 48.88787 10.33607 24376 ft 443 kts 137°
2026-04-15 07:03 48.86533 10.36799 24500 ft 443 kts 137°
2026-04-15 07:03 48.84279 10.39989 24625 ft 443 kts 137°
2026-04-15 07:03 48.82039 10.43192 24749 ft 443 kts 136°
2026-04-15 07:04 48.79867 10.46498 24874 ft 442 kts 134°
2026-04-15 07:04 48.77752 10.49887 24998 ft 442 kts 133°
2026-04-15 07:04 48.75667 10.53309 25123 ft 442 kts 133°
2026-04-15 07:04 48.73587 10.56733 25248 ft 441 kts 133°
2026-04-15 07:05 48.71501 10.60140 25373 ft 441 kts 133°
2026-04-15 07:05 48.69406 10.63524 25498 ft 440 kts 134°
2026-04-15 07:05 48.67304 10.66884 25622 ft 439 kts 134°
2026-04-15 07:05 48.65195 10.70231 25747 ft 439 kts 134°
2026-04-15 07:06 48.63089 10.73562 25871 ft 438 kts 134°
2026-04-15 07:06 48.60981 10.76890 25996 ft 438 kts 135°
2026-04-15 07:06 48.58709 10.79943 26119 ft 437 kts 143°
2026-04-15 07:06 48.56153 10.82399 26244 ft 436 kts 153°
2026-04-15 07:07 48.53461 10.84500 26371 ft 435 kts 153°
2026-04-15 07:07 48.50772 10.86596 26496 ft 435 kts 153°
2026-04-15 07:07 48.48088 10.88689 26620 ft 434 kts 153°
2026-04-15 07:07 48.45410 10.90777 26745 ft 434 kts 153°
2026-04-15 07:08 48.42725 10.92867 26870 ft 433 kts 153°
2026-04-15 07:08 48.40048 10.94955 26994 ft 433 kts 153°
2026-04-15 07:08 48.37375 10.97034 27119 ft 433 kts 153°
2026-04-15 07:08 48.34704 10.99108 27244 ft 432 kts 153°
2026-04-15 07:09 48.32031 11.01181 27369 ft 432 kts 153°
2026-04-15 07:09 48.29357 11.03249 27494 ft 431 kts 153°
2026-04-15 07:09 48.26692 11.05309 27619 ft 431 kts 153°
2026-04-15 07:09 48.24025 11.07369 27744 ft 431 kts 153°
2026-04-15 07:10 48.21363 11.09424 27869 ft 430 kts 153°
2026-04-15 07:10 48.18703 11.11476 27994 ft 430 kts 153°
2026-04-15 07:10 48.16045 11.13521 28119 ft 430 kts 153°
2026-04-15 07:10 48.13386 11.15563 28244 ft 429 kts 153°
2026-04-15 07:11 48.10725 11.17603 28369 ft 429 kts 153°
2026-04-15 07:11 48.08073 11.19638 28494 ft 429 kts 153°
2026-04-15 07:11 48.05416 11.21676 28619 ft 428 kts 153°
2026-04-15 07:11 48.02769 11.23702 28744 ft 428 kts 153°
2026-04-15 07:12 48.00122 11.25727 28869 ft 427 kts 153°
2026-04-15 07:12 47.97475 11.27749 28994 ft 427 kts 153°
2026-04-15 07:12 47.94949 11.29677 29114 ft 427 kts 153°
2026-04-15 07:12 47.92301 11.31700 29240 ft 428 kts 153°
2026-04-15 07:13 47.89651 11.33718 29365 ft 428 kts 153°
2026-04-15 07:13 47.86997 11.35733 29490 ft 428 kts 153°
2026-04-15 07:13 47.81710 11.39849 29740 ft 429 kts 152°
2026-04-15 07:14 47.77367 11.43418 29972 ft 429 kts 151°
2026-04-15 07:14 47.72125 11.47771 30009 ft 435 kts 151°
2026-04-15 07:15 47.66791 11.52132 30009 ft 441 kts 152°
2026-04-15 07:15 47.61377 11.56508 30010 ft 445 kts 152°
2026-04-15 07:16 47.55906 11.60908 30010 ft 449 kts 152°
2026-04-15 07:16 47.50396 11.65345 30009 ft 453 kts 152°
2026-04-15 07:17 47.44835 11.69813 30009 ft 456 kts 152°
2026-04-15 07:17 47.39171 11.74076 30008 ft 458 kts 159°
2026-04-15 07:18 47.33005 11.76379 30010 ft 459 kts 174°
2026-04-15 07:18 47.26613 11.76428 30009 ft 461 kts 182°
2026-04-15 07:19 47.20194 11.76077 30009 ft 462 kts 182°
2026-04-15 07:19 47.13751 11.75735 30009 ft 464 kts 182°
2026-04-15 07:20 47.07284 11.75399 30009 ft 465 kts 182°
2026-04-15 07:20 47.00806 11.75041 30009 ft 466 kts 182°
2026-04-15 07:21 46.94321 11.74670 30009 ft 467 kts 182°
2026-04-15 07:21 46.87810 11.74319 30009 ft 468 kts 182°
2026-04-15 07:22 46.81294 11.73969 30009 ft 469 kts 182°
2026-04-15 07:22 46.74771 11.73620 30009 ft 469 kts 182°
2026-04-15 07:23 46.68242 11.73272 30009 ft 470 kts 182°
2026-04-15 07:23 46.61701 11.72909 30009 ft 470 kts 182°
2026-04-15 07:24 46.55158 11.72535 30009 ft 471 kts 182°
2026-04-15 07:24 46.48600 11.72173 30009 ft 471 kts 182°
2026-04-15 07:25 46.42049 11.71809 30009 ft 471 kts 182°
2026-04-15 07:25 46.35494 11.71585 30009 ft 472 kts 180°
2026-04-15 07:26 46.28936 11.71888 30009 ft 472 kts 177°
2026-04-15 07:26 46.22376 11.72344 30009 ft 472 kts 178°
2026-04-15 07:27 46.15812 11.72692 30009 ft 472 kts 178°
2026-04-15 07:27 46.09243 11.72955 30009 ft 472 kts 179°
2026-04-15 07:28 46.02667 11.73212 30009 ft 472 kts 179°
2026-04-15 07:28 45.96101 11.73481 30009 ft 472 kts 178°
2026-04-15 07:29 45.89526 11.73761 30009 ft 472 kts 178°
2026-04-15 07:29 45.82949 11.74046 30009 ft 472 kts 178°
2026-04-15 07:30 45.76388 11.74330 30009 ft 472 kts 178°
2026-04-15 07:30 45.69812 11.74616 30009 ft 472 kts 178°
2026-04-15 07:31 45.63249 11.74885 30009 ft 472 kts 179°
2026-04-15 07:31 45.56675 11.75148 30009 ft 472 kts 179°
2026-04-15 07:32 45.50121 11.75425 30009 ft 472 kts 178°
2026-04-15 07:32 45.43543 11.75718 30009 ft 472 kts 178°
2026-04-15 07:33 45.36974 11.75989 30009 ft 472 kts 179°
2026-04-15 07:33 45.30408 11.76252 30009 ft 472 kts 178°
2026-04-15 07:34 45.23831 11.76532 30009 ft 472 kts 178°
2026-04-15 07:34 45.17262 11.76818 30009 ft 472 kts 178°
2026-04-15 07:35 45.10694 11.77088 30009 ft 472 kts 179°
2026-04-15 07:35 45.04133 11.77350 30009 ft 472 kts 178°
2026-04-15 07:36 44.97602 11.77618 30009 ft 472 kts 178°
2026-04-15 07:36 44.90989 11.77898 30009 ft 472 kts 178°
2026-04-15 07:37 44.84469 11.78160 30009 ft 472 kts 179°
2026-04-15 07:37 44.77895 11.78426 30009 ft 472 kts 178°
2026-04-15 07:38 44.71326 11.78705 30009 ft 472 kts 178°
2026-04-15 07:38 44.64764 11.78977 30009 ft 472 kts 178°
2026-04-15 07:39 44.58195 11.79238 30009 ft 472 kts 179°
2026-04-15 07:39 44.51631 11.79499 30009 ft 472 kts 178°
2026-04-15 07:40 44.45054 11.79768 30009 ft 472 kts 179°
2026-04-15 07:40 44.38478 11.80035 30009 ft 472 kts 178°
2026-04-15 07:41 44.31916 11.80304 30009 ft 472 kts 178°
2026-04-15 07:41 44.25344 11.80561 30009 ft 472 kts 179°
2026-04-15 07:42 44.18772 11.80827 30009 ft 472 kts 178°
2026-04-15 07:42 44.12193 11.81095 30009 ft 472 kts 178°
2026-04-15 07:43 44.05624 11.81367 30009 ft 472 kts 178°
2026-04-15 07:43 43.99092 11.81625 30009 ft 472 kts 179°
2026-04-15 07:44 43.92471 11.81883 30009 ft 473 kts 179°
2026-04-15 07:44 43.85906 11.82143 30009 ft 472 kts 178°
2026-04-15 07:45 43.79315 11.82412 29663 ft 475 kts 177°
2026-04-15 07:45 43.76042 11.82966 29412 ft 474 kts 168°
2026-04-15 07:45 43.72830 11.83987 29163 ft 472 kts 167°
2026-04-15 07:46 43.69638 11.85022 28912 ft 470 kts 167°
2026-04-15 07:46 43.66461 11.86041 28662 ft 468 kts 167°
2026-04-15 07:46 43.63300 11.87053 28413 ft 466 kts 167°
2026-04-15 07:46 43.60146 11.88062 28162 ft 464 kts 167°
2026-04-15 07:47 43.57010 11.89058 27912 ft 461 kts 167°
2026-04-15 07:47 43.53892 11.90046 27662 ft 459 kts 167°
2026-04-15 07:47 43.50784 11.91033 27412 ft 457 kts 167°
2026-04-15 07:47 43.47697 11.92007 27162 ft 455 kts 167°
2026-04-15 07:48 43.44615 11.92980 26911 ft 453 kts 167°
2026-04-15 07:48 43.41547 11.93950 26660 ft 451 kts 167°
2026-04-15 07:48 43.38500 11.94914 26411 ft 449 kts 167°
2026-04-15 07:48 43.35467 11.95874 26160 ft 446 kts 167°
2026-04-15 07:49 43.32444 11.96827 25910 ft 444 kts 167°
2026-04-15 07:49 43.29436 11.97776 25660 ft 442 kts 167°
2026-04-15 07:49 43.26445 11.98720 25409 ft 440 kts 167°
2026-04-15 07:49 43.23472 11.99659 25159 ft 438 kts 167°
2026-04-15 07:50 43.20503 12.00592 24909 ft 436 kts 167°
2026-04-15 07:50 43.17554 12.01512 24659 ft 434 kts 167°
2026-04-15 07:50 43.14632 12.02425 24240 ft 427 kts 167°
2026-04-15 07:50 43.11753 12.03331 23711 ft 423 kts 167°
2026-04-15 07:51 43.08901 12.04223 23192 ft 418 kts 167°
2026-04-15 07:51 43.06080 12.05101 22698 ft 413 kts 167°
2026-04-15 07:51 43.03292 12.05970 22206 ft 409 kts 167°
2026-04-15 07:51 43.00529 12.06832 21715 ft 405 kts 167°
2026-04-15 07:52 42.97797 12.07686 21228 ft 401 kts 167°
2026-04-15 07:52 42.95119 12.08524 20737 ft 398 kts 167°
2026-04-15 07:52 42.92399 12.09372 20237 ft 394 kts 167°
2026-04-15 07:52 42.89737 12.10197 19731 ft 391 kts 167°
2026-04-15 07:53 42.87132 12.11006 19237 ft 388 kts 167°
2026-04-15 07:53 42.84502 12.11820 18725 ft 386 kts 167°
2026-04-15 07:53 42.81891 12.12625 18216 ft 383 kts 167°
2026-04-15 07:53 42.79298 12.13426 17732 ft 380 kts 167°
2026-04-15 07:54 42.76729 12.14225 17297 ft 376 kts 167°
2026-04-15 07:54 42.74217 12.15010 17170 ft 364 kts 167°
2026-04-15 07:54 42.71795 12.15761 17042 ft 352 kts 167°
2026-04-15 07:54 42.69413 12.16250 16872 ft 342 kts 179°
2026-04-15 07:55 42.67049 12.16096 16403 ft 342 kts 184°
2026-04-15 07:55 42.64691 12.15857 16116 ft 337 kts 185°
2026-04-15 07:55 42.60799 12.15462 15496 ft 333 kts 184°
2026-04-15 07:56 42.58520 12.15234 15134 ft 331 kts 184°
2026-04-15 07:56 42.56200 12.15001 14795 ft 328 kts 184°
2026-04-15 07:56 42.53926 12.14776 14307 ft 330 kts 184°
2026-04-15 07:56 42.51623 12.14552 13805 ft 332 kts 184°
2026-04-15 07:57 42.49309 12.14322 13304 ft 334 kts 184°
2026-04-15 07:57 42.46992 12.14087 12803 ft 335 kts 185°
2026-04-15 07:57 42.44673 12.13853 12303 ft 335 kts 184°
2026-04-15 07:57 42.42348 12.13623 11802 ft 335 kts 184°
2026-04-15 07:58 42.40031 12.13395 11301 ft 334 kts 184°
2026-04-15 07:58 42.37715 12.13170 10799 ft 333 kts 184°
2026-04-15 07:58 42.35405 12.12947 10297 ft 332 kts 184°
2026-04-15 07:58 42.33140 12.12738 9793 ft 330 kts 184°
2026-04-15 07:59 42.30845 12.12527 9180 ft 331 kts 184°
2026-04-15 07:59 42.28550 12.12317 8629 ft 330 kts 184°
2026-04-15 07:59 42.26266 12.12108 8077 ft 328 kts 184°
2026-04-15 07:59 42.23998 12.11900 7526 ft 325 kts 184°
2026-04-15 08:00 42.21749 12.11695 6975 ft 323 kts 184°
2026-04-15 08:00 42.19537 12.11560 6420 ft 313 kts 177°
2026-04-15 08:00 42.17414 12.12166 5871 ft 312 kts 162°
2026-04-15 08:00 42.15379 12.13150 5314 ft 307 kts 161°
2026-04-15 08:01 42.13396 12.14042 4760 ft 293 kts 163°
2026-04-15 08:01 42.11493 12.14836 4260 ft 279 kts 163°
2026-04-15 08:01 42.09691 12.15590 4043 ft 270 kts 163°
2026-04-15 08:01 42.07980 12.16312 4042 ft 269 kts 163°
2026-04-15 08:02 42.06195 12.17066 4043 ft 269 kts 163°
2026-04-15 08:02 42.04457 12.17800 3974 ft 255 kts 163°
2026-04-15 08:02 42.02791 12.18502 3707 ft 249 kts 163°
2026-04-15 08:02 42.01149 12.19194 3391 ft 245 kts 163°
2026-04-15 08:03 41.99534 12.19874 3072 ft 242 kts 163°
2026-04-15 08:03 41.97960 12.20537 2753 ft 231 kts 163°
2026-04-15 08:03 41.96492 12.21155 2455 ft 210 kts 163°
2026-04-15 08:03 41.95147 12.21720 2215 ft 196 kts 163°
2026-04-15 08:04 41.93888 12.22250 1930 ft 183 kts 163°
2026-04-15 08:04 41.92736 12.22734 1712 ft 163 kts 163°
2026-04-15 08:04 41.91702 12.23168 1499 ft 150 kts 163°
2026-04-15 08:04 41.90729 12.23576 1307 ft 144 kts 163°
2026-04-15 08:05 41.89779 12.23975 1114 ft 142 kts 163°
2026-04-15 08:05 41.88841 12.24370 929 ft 141 kts 163°
2026-04-15 08:05 41.87906 12.24764 741 ft 140 kts 163°
2026-04-15 08:05 41.86976 12.25157 557 ft 140 kts 163°
2026-04-15 08:06 41.86049 12.25547 371 ft 139 kts 164°
2026-04-15 08:06 41.85123 12.25923 186 ft 139 kts 163°
2026-04-15 08:06 41.84209 12.26312 20 ft 133 kts 163°
2026-04-15 08:06 41.83469 12.26614 13 ft 87 kts 162°
2026-04-15 08:07 41.82994 12.26818 12 ft 46 kts 162°
2026-04-15 08:07 41.82727 12.26869 12 ft 30 kts 185°
2026-04-15 08:07 41.82529 12.26819 11 ft 28 kts 193°
2026-04-15 08:07 41.82334 12.26780 11 ft 29 kts 172°
2026-04-15 08:08 41.82139 12.26855 11 ft 30 kts 162°
2026-04-15 08:08 41.81952 12.26933 11 ft 29 kts 163°
2026-04-15 08:08 41.81758 12.27012 12 ft 30 kts 163°
2026-04-15 08:08 41.81562 12.27095 12 ft 29 kts 162°
2026-04-15 08:09 41.81372 12.27176 12 ft 28 kts 162°
2026-04-15 08:09 41.81184 12.27256 12 ft 29 kts 162°
2026-04-15 08:09 41.80989 12.27338 12 ft 30 kts 163°
2026-04-15 08:09 41.80782 12.27324 13 ft 31 kts 189°
2026-04-15 08:10 41.80642 12.27179 13 ft 27 kts 248°
2026-04-15 08:10 41.80577 12.26943 13 ft 28 kts 250°
2026-04-15 08:10 41.80508 12.26693 15 ft 28 kts 250°
2026-04-15 08:10 41.80439 12.26442 15 ft 29 kts 250°
2026-04-15 08:11 41.80374 12.26206 15 ft 24 kts 250°
2026-04-15 08:11 41.80258 12.26056 14 ft 25 kts 203°
2026-04-15 08:11 41.80094 12.25959 14 ft 27 kts 204°
2026-04-15 08:11 41.79943 12.25867 14 ft 22 kts 205°
2026-04-15 08:12 41.79835 12.25793 14 ft 15 kts 211°
2026-04-15 08:12 41.79789 12.25761 14 ft 0 kts 206°
2026-04-15 08:12 41.79765 12.25746 14 ft 15 kts 205°
2026-04-15 08:12 41.79753 12.25689 14 ft 6 kts 312°
2026-04-15 08:13 41.79761 12.25672 14 ft 0 kts 300°
2026-04-15 08:13 41.79762 12.25669 14 ft 1 kts 296°
2026-04-15 08:13 41.79764 12.25663 14 ft 0 kts 296°